Portage Southport, Manitoba

11:23 PM CST on November 18, 2017 (GMT -0600)
Portage Southport

Weather History for CYPG - June, 2013

Change the Weather History Date:

Wednesday, June 26, 2013

  Actual Average Record
Temperature  
Mean Temperature 71 °F -  
Max Temperature 80 °F 74 °F 86 °F (2002)
Min Temperature 62 °F 56 °F 46 °F (2004)
Cooling Degree Days 6    
Growing Degree Days 21 (Base 50)    
Moisture  
Dew Point 63 °F    
Average Humidity 73    
Maximum Humidity 95    
Minimum Humidity 48    
Precipitation  
Precipitation 0.00 in - - ()
Sea Level Pressure  
Sea Level Pressure 29.66 in    
Wind  
Wind Speed 9 mph ()    
Max Wind Speed 21 mph    
Max Gust Speed 25 mph    
Visibility 15.0 miles    
Events Rain    
Averages and records for this station are not official NWS values.
T = Trace of Precipitation, MM = Missing Value Source: Averaged Metar Reports

Daily Weather History Graph

Daily Weather History Graph

Search for Another Location

Airport or City:

Trip Planner

Search our weather history database for the weather conditions in past years. The results will help you decide how hot, cold, wet, or windy it might be!

Date:

Astronomy

Jun. 26, 2013 Rise Set
Actual Time 5:26 AM CDT 9:45 PM CDT
Civil Twilight 4:41 AM CDT 10:30 PM CDT
Nautical Twilight 3:36 AM CDT 11:34 PM CDT
Astronomical Twilight 2:08 AM CDT 1:03 AM CDT
Moon 11:41 PM CDT (6/26) 9:43 AM CDT (6/26)
Length of Visible Light 17h 48m
Length of Day
16h 19m
Waning Gibbous, 85% of the Moon is Illuminated
Jun 26
Waning Gibbous
Jun 29
Last Quarter
Jul 8
New
Jul 15
First Quarter
Jul 22
Full

Hourly Weather History & Observations

Time (CDT) Temp. Heat Index Dew Point Humidity Pressure Visibility Wind Dir Wind Speed Gust Speed Precip Events Conditions
1:00 AM 64 °F - 63 °F 95% 29.61 in - ESE 2.3 mph - -  
6:00 AM 64.4 °F - 62.6 °F 94% 29.63 in 15.0 mi SW 9.2 mph - N/A   Mostly Cloudy
7:00 AM 64 °F - 62 °F 91% 29.64 in - SW 5.8 mph - -  
7:00 AM 64.4 °F - 62.6 °F 94% 29.65 in 15.0 mi SSW 8.1 mph - N/A   Mostly Cloudy
7:34 AM - - - N/A% - 15.0 mi WSW 12.7 mph - N/A   Mostly Cloudy
8:00 AM 66.2 °F - 62.6 °F 88% 29.65 in 15.0 mi WSW 13.8 mph - N/A   Scattered Clouds
9:00 AM 68.0 °F - 62.6 °F 83% 29.65 in 15.0 mi West 17.3 mph 23.0 mph N/A   Partly Cloudy
10:00 AM 71.6 °F - 64.4 °F 78% 29.67 in 15.0 mi West 17.3 mph 24.2 mph N/A   Partly Cloudy
11:00 AM 73.4 °F - 64.4 °F 73% 29.67 in 15.0 mi West 19.6 mph 25.3 mph N/A   Scattered Clouds
12:00 PM 75.2 °F - 64.4 °F 69% 29.68 in 15.0 mi West 16.1 mph 21.9 mph N/A   Mostly Cloudy
1:00 PM 76 °F - 65 °F 61% 29.67 in - West 6.9 mph - -  
1:00 PM 77.0 °F - 64.4 °F 65% 29.68 in 15.0 mi West 11.5 mph 19.6 mph N/A   Mostly Cloudy
2:00 PM 78.8 °F - 62.6 °F 57% 29.67 in 15.0 mi West 12.7 mph 19.6 mph N/A   Mostly Cloudy
3:00 PM 80.6 °F 82.3 °F 64.4 °F 58% 29.65 in 15.0 mi West 20.7 mph - N/A   Mostly Cloudy
3:32 PM - - - N/A% - 15.0 mi West 10.4 mph - N/A Rain Light Rain Showers
4:00 PM 75.2 °F - 66.2 °F 73% 29.68 in 15.0 mi WSW 11.5 mph - N/A Rain Light Rain Showers
5:00 PM 73.4 °F - 62.6 °F 69% 29.67 in 15.0 mi West 12.7 mph - N/A Rain Light Rain Showers
5:18 PM - - - N/A% - 15.0 mi WSW 10.4 mph - N/A   Mostly Cloudy
6:00 PM 78.8 °F - 60.8 °F 54% 29.68 in 15.0 mi West 10.4 mph - N/A   Scattered Clouds
7:00 PM 78 °F - 62 °F 48% 29.65 in - WSW 6.9 mph - -  
7:00 PM 78.8 °F - 60.8 °F 54% 29.66 in 15.0 mi SW 12.7 mph - N/A   Partly Cloudy
8:00 PM 73.4 °F - 60.8 °F 65% 29.69 in 15.0 mi NNW 11.5 mph - N/A   Scattered Clouds
9:00 PM 69.8 °F - 60.8 °F 73% 29.68 in 15.0 mi SSW 2.3 mph - N/A   Partly Cloudy
10:00 PM 68.0 °F - 60.8 °F 78% 29.70 in 15.0 mi SW 4.6 mph - N/A   Partly Cloudy
11:00 PM 68.0 °F - 60.8 °F 78% 29.69 in 15.0 mi SW 4.6 mph - N/A   Partly Cloudy